Location: Caracas
(10.5033°N, 66.8422°W)
Time: 01:18:28
(UTC-04:00)

N. Korean satellite - Pass Details

Date: 11 November 2017
Orbit: 460 x 514 km, 97.2° (Epoch: 22 November)

Event Time Altitude Azimuth Distance (km) Brightness Sun altitude
Rises 19:14:47 0° 188° (S) 2,479 10.5 -18.1°
Reaches altitude 10° 19:17:02 10° 201° (SSW) 1,601 9.7 -18.6°
Maximum altitude 19:19:59 27° 260° (W) 916 8.7 -19.3°
Drops below altitude 10° 19:22:55 10° 320° (NW) 1,597 9.5 -20.0°
Sets 19:25:10 0° 333° (NNW) 2,472 10.3 -20.6°
